Zurück zum Katalog

CZ-4B DEB

AktivPO
NORAD 29216·DEBRIS·🇨🇳 China

Gestartet May 15, 2002 von Taiyuan Satellite Launch Center

Loading…

Nächste Überflüge (nächste 24 Stunden)

TLE

AktuellSource: Space-Track

Epoche: Sep 12, 2026, 19:31 UTC

1 29216U 02024G   26255.81340137  .00000229  00000-0  25965-3 0  9998
2 29216  98.8542  28.9367 0224995 229.1187 129.0275 13.69289211711438

Verfolge CZ-4B DEB in Echtzeit mit AllMySat

Download on the App Store